Temp
9 9 9 9 9 9 9 9 8 8 8 8 8 8 8 8 8 8 8 8 7 8 8 8 8 8 8 9 9 8 8 9 9 10 10 9 9 10 10 9 9 9 9
9 9 9 9 9 9 8 8 8 8 8 8 8 8 7 7 6 6 7 7 7 7 7 7 8 8 8 8 9 9 9 9 8 9 8 9 9 9 9 9 9 9 9
9 9 9 9 8 8 8 8 7 7 7 7 7 6 6 5 5 5 6 6 7 6 7 7 8 8 7 8 8 9 9 9 8 8 10 9 9 8 9 9 9 9 9
9 9 9 8 7 7 7 7 7 6 6 6 5 5 5 5 6 6 6 6 6 6 6 7 7 8 8 7 8 8 8 8 8 9 10 8 8 7 8 7 9 9 9
9 9 8 7 7 7 7 6 6 5 5 4 4 5 5 6 6 6 5 6 6 7 7 7 7 7 7 7 7 7 7 8 8 9 9 9 9 8 8 8 8 7 7
9 8 8 7 7 7 6 6 5 4 4 4 4 4 5 6 5 4 4 4 5 6 6 6 7 7 7 7 7 7 7 7 8 8 8 8 9 8 7 7 8 6 6
9 8 7 7 7 6 6 5 4 4 3 3 4 5 5 4 4 5 4 4 4 5 6 6 6 7 7 6 7 7 7 7 8 8 8 8 8 8 7 6 7 6 8
9 7 7 6 6 5 5 4 3 3 2 3 4 4 3 3 5 5 5 5 5 5 5 5 6 6 7 7 6 7 7 7 8 8 8 8 8 7 6 6 7 7 7
8 7 6 6 5 5 4 3 2 2 2 4 3 3 2 3 4 5 6 5 5 5 6 6 6 6 7 7 7 6 7 8 7 7 7 7 7 6 7 6 7 7 7
6 5 5 4 4 4 3 2 2 1 2 3 3 2 2 2 5 5 6 6 6 6 5 5 6 6 6 6 6 7 7 7 7 7 7 7 7 6 6 7 8 7 7
5 4 4 4 4 4 2 2 1 2 2 3 3 1 1 1 4 5 5 5 5 6 6 5 5 6 6 6 6 6 7 7 6 7 7 7 7 6 6 7 7 7 8
5 5 4 3 3 3 2 2 1 1 2 1 1 2 1 1 3 5 4 4 5 5 5 6 6 6 6 6 6 7 6 6 6 7 7 7 6 6 6 6 6 7 7
5 4 3 3 3 3 2 2 2 1 1 1 1 1 2 0 1 3 4 5 5 5 5 5 5 6 6 6 6 6 6 6 7 7 7 6 6 6 6 6 6 6 7
4 4 3 3 2 2 2 2 1 1 0 0 -0 0 2 -0 0 1 1 4 4 5 5 5 5 5 5 5 5 5 6 6 6 6 6 5 5 5 6 6 6 6 6
4 3 3 3 1 1 2 2 1 1 0 -0 -0 0 1 1 0 -0 0 1 1 2 3 4 4 4 4 4 4 5 5 5 6 6 5 6 6 6 6 6 6 6 6
4 3 3 2 0 1 0 0 1 0 0 -0 -1 -0 -0 -0 -0 0 1 0 0 1 1 2 2 3 3 4 4 4 4 3 4 5 6 6 6 6 5 6 6 6 6
4 3 2 1 1 0 0 -0 -0 0 0 -0 -0 -0 -0 0 -0 -1 -1 -1 -1 1 2 2 1 2 3 3 3 3 3 3 4 3 3 3 4 3 3 3 2 3 3
3 3 2 2 0 0 0 0 -0 -0 0 0 -0 -1 -1 -1 -1 -1 -1 -1 -1 1 1 1 2 2 2 2 2 2 3 3 2 3 2 3 3 3 3 3 2 2 1
3 2 0 0 0 0 0 0 -0 -0 -0 -0 -1 -1 -1 -0 -1 -1 -0 0 -1 -1 -0 0 1 1 2 2 2 2 2 1 2 1 2 1 1 2 3 3 3 3 3
2 2 1 0 0 0 0 -0 -0 -1 -0 -0 -1 -1 -1 0 0 1 1 1 1 1 1 1 1 1 1 1 0 0 1 0 1 1 1 1 1 2 2 2 2 1 2
1 0 1 -0 -0 0 -0 -0 -0 -1 -0 -1 -0 -0 0 0 1 1 1 2 2 2 2 2 2 2 2 2 2 2 0 1 -0 0 1 -0 0 1 1 1 1 1 1
-1 -0 -0 -0 -1 -0 -0 -0 -0 -1 -1 -1 -0 1 1 1 1 1 1 1 2 2 2 2 2 2 2 3 2 2 2 2 1 1 1 1 1 0 0 -0 0 0 0
-1 -0 -1 -0 -1 -1 -1 -0 -1 -1 -1 -0 -0 -0 0 1 1 1 1 1 2 2 2 2 2 2 2 2 2 2 2 2 2 2 2 2 1 1 1 1 1 1 -0
-0 -0 -0 -0 -1 -1 -1 -1 -1 -1 -0 0 0 1 1 1 1 1 1 1 1 1 1 1 1 1 1 2 2 2 2 2 2 1 1 1 1 1 1 1 1 1 1
-1 -1 -1 -2 -1 -1 -1 -1 -1 -1 0 0 0 0 1 1 1 1 1 1 1 1 1 1 1 1 1 1 1 1 1 1 1 1 1 1 1 1 0 0 0 -0 -0
-1 -1 -2 -1 -1 -1 -1 -0 -0 -0 -0 -0 -0 -0 -0 -0 -0 0 0 0 0 0 0 0 0 0 0 0 0 0 0 -0 -0 -1 -1 -1 -1 -1 -1 -1 -1 -1 -1
Height
3190 3187 3183 3179 3173 3169 3164 3158 3153 3149 3146 3142 3138 3133 3130 3128 3125 3121 3118 3116 3116 3117 3118 3120 3122 3126 3128 3130 3131 3127 3113 3135 3137 3144 3146 3149 3149 3150 3154 3154 3154 3155 3157
3184 3181 3176 3171 3165 3160 3155 3150 3144 3139 3135 3130 3125 3121 3117 3112 3110 3107 3104 3103 3100 3100 3102 3104 3106 3111 3115 3117 3119 3120 3121 3126 3126 3131 3138 3137 3137 3140 3142 3145 3146 3147 3149
3178 3174 3169 3163 3157 3151 3146 3140 3136 3131 3126 3121 3115 3110 3104 3099 3095 3092 3089 3086 3085 3084 3084 3087 3091 3096 3100 3104 3108 3110 3113 3115 3116 3119 3123 3126 3127 3130 3130 3133 3136 3138 3139
3172 3167 3160 3154 3148 3142 3136 3131 3126 3122 3116 3111 3105 3099 3092 3087 3080 3074 3070 3066 3064 3065 3066 3070 3074 3080 3085 3091 3096 3098 3103 3105 3107 3109 3110 3112 3116 3119 3123 3121 3125 3128 3130
3165 3158 3151 3145 3140 3134 3129 3124 3119 3114 3108 3101 3095 3089 3080 3071 3064 3055 3048 3044 3043 3044 3050 3053 3057 3064 3072 3077 3083 3087 3090 3094 3096 3098 3098 3100 3103 3105 3109 3113 3115 3120 3121
3157 3150 3143 3138 3134 3128 3122 3117 3112 3106 3101 3094 3087 3077 3067 3056 3045 3039 3033 3026 3025 3025 3030 3037 3043 3050 3057 3063 3071 3076 3080 3083 3085 3087 3089 3091 3094 3096 3099 3103 3106 3110 3112
3149 3142 3137 3132 3127 3121 3116 3111 3106 3100 3094 3086 3077 3066 3055 3042 3034 3028 3023 3016 3012 3014 3018 3024 3031 3039 3046 3052 3059 3065 3069 3071 3075 3079 3080 3083 3084 3088 3090 3090 3096 3100 3104
3140 3135 3130 3125 3120 3115 3111 3105 3099 3094 3087 3078 3069 3058 3045 3033 3025 3021 3016 3011 3007 3008 3011 3016 3023 3030 3037 3043 3050 3054 3059 3063 3066 3069 3072 3074 3075 3076 3078 3083 3087 3091 3094
3134 3129 3124 3119 3115 3110 3105 3099 3094 3088 3081 3071 3062 3051 3039 3026 3019 3016 3012 3009 3007 3007 3009 3012 3017 3023 3029 3035 3041 3045 3050 3055 3059 3061 3064 3065 3066 3067 3068 3071 3076 3080 3084
3127 3122 3118 3112 3108 3104 3099 3094 3090 3084 3076 3067 3058 3047 3036 3021 3012 3010 3007 3004 3003 3004 3006 3008 3011 3017 3022 3028 3033 3039 3043 3048 3052 3053 3056 3057 3056 3058 3061 3063 3057 3068 3077
3119 3115 3110 3106 3104 3100 3095 3090 3085 3080 3073 3064 3055 3045 3035 3020 3008 3007 3002 3000 3000 3001 3002 3004 3007 3011 3016 3022 3028 3032 3036 3039 3042 3044 3046 3046 3047 3046 3048 3051 3057 3064 3069
3112 3109 3105 3103 3099 3096 3092 3087 3082 3077 3069 3061 3054 3045 3034 3021 3006 3003 3000 2998 2996 2999 3001 3002 3005 3008 3013 3018 3021 3025 3028 3031 3034 3037 3038 3038 3036 3038 3042 3045 3049 3055 3059
3107 3105 3102 3099 3096 3093 3090 3085 3081 3076 3068 3062 3054 3045 3034 3024 3011 3000 2996 2996 2994 2996 2999 3000 3003 3005 3009 3011 3015 3019 3022 3025 3028 3029 3031 3031 3031 3033 3036 3038 3042 3046 3050
3103 3100 3098 3096 3093 3090 3087 3082 3079 3074 3069 3062 3056 3046 3037 3029 3017 3005 2999 2995 2994 2994 2992 2995 2998 3002 3004 3007 3010 3014 3017 3020 3022 3022 3024 3024 3026 3028 3031 3034 3035 3038 3041
3098 3096 3093 3091 3089 3088 3085 3081 3077 3073 3068 3063 3056 3048 3040 3034 3027 3019 3010 3005 3004 3000 2997 2998 3001 3004 3006 3007 3007 3010 3014 3014 3015 3017 3017 3018 3019 3021 3023 3025 3028 3031 3033
3092 3090 3088 3087 3088 3087 3083 3080 3075 3072 3068 3064 3058 3052 3045 3039 3035 3028 3022 3016 3015 3011 3007 3006 3008 3010 3010 3011 3012 3012 3014 3012 3011 3009 3010 3011 3013 3015 3017 3019 3020 3022 3018
3087 3085 3083 3083 3086 3084 3080 3078 3075 3071 3067 3063 3059 3054 3049 3043 3036 3032 3027 3025 3023 3021 3019 3018 3019 3017 3016 3015 3015 3014 3014 3012 3011 3009 3009 3006 3011 3012 3011 3013 3012 3015 3015
3081 3080 3079 3079 3082 3080 3077 3075 3073 3070 3066 3063 3058 3055 3052 3047 3044 3039 3034 3032 3029 3027 3026 3025 3025 3024 3022 3020 3019 3018 3017 3014 3015 3013 3010 3011 3013 3012 3010 3011 3012 3012 3012
3077 3076 3077 3078 3077 3075 3073 3072 3070 3068 3065 3063 3059 3056 3053 3050 3046 3043 3039 3035 3031 3028 3027 3027 3026 3026 3024 3023 3023 3022 3020 3019 3017 3015 3014 3014 3015 3014 3014 3013 3013 3012 3011
3072 3072 3072 3074 3072 3071 3071 3070 3068 3066 3064 3062 3059 3056 3053 3049 3046 3043 3040 3036 3033 3031 3029 3028 3026 3025 3024 3023 3022 3021 3020 3020 3019 3018 3018 3018 3018 3018 3018 3017 3016 3014 3013
3068 3069 3068 3069 3068 3068 3068 3066 3066 3064 3061 3060 3058 3055 3052 3048 3044 3041 3038 3036 3034 3031 3029 3028 3027 3025 3024 3022 3021 3021 3020 3020 3019 3018 3018 3017 3016 3016 3016 3016 3016 3014 3013
3060 3063 3064 3065 3063 3064 3064 3063 3062 3061 3059 3057 3054 3051 3049 3047 3043 3040 3037 3034 3032 3030 3029 3027 3026 3025 3023 3021 3020 3019 3018 3017 3016 3016 3015 3014 3014 3013 3012 3011 3011 3010 3010
3052 3054 3056 3057 3057 3060 3060 3059 3059 3057 3055 3053 3051 3048 3045 3043 3040 3038 3036 3034 3032 3029 3028 3025 3024 3022 3020 3019 3018 3017 3015 3014 3013 3012 3011 3010 3008 3008 3007 3006 3005 3003 3002
3045 3048 3052 3053 3056 3056 3056 3055 3054 3053 3051 3049 3047 3045 3042 3040 3038 3036 3034 3032 3030 3027 3025 3023 3021 3020 3018 3015 3014 3013 3012 3011 3009 3007 3006 3005 3003 3002 3000 2998 2996 2994 2994
3043 3046 3047 3051 3052 3051 3051 3050 3049 3047 3045 3044 3042 3040 3039 3037 3035 3033 3031 3029 3027 3025 3023 3020 3018 3016 3013 3011 3009 3007 3006 3005 3003 3002 2999 2997 2995 2993 2992 2990 2989 2987 2985
3044 3046 3046 3047 3047 3047 3046 3045 3044 3043 3042 3040 3038 3036 3035 3033 3031 3029 3027 3025 3023 3021 3019 3017 3015 3013 3011 3008 3006 3004 3002 3000 2998 2995 2992 2990 2988 2986 2983 2981 2978 2976 2973
Wind_Speed
22 27 32 35 36 36 35 35 35 35 35 36 37 39 41 42 42 44 47 49 45 47 48 50 49 46 46 45 44 50 45 44 47 41 41 37 40 40 36 38 40 40 39
24 30 34 39 39 36 36 37 38 39 38 39 41 43 44 45 44 44 46 45 48 49 51 50 51 49 47 47 46 46 44 47 45 49 38 42 39 42 37 39 39 40 41
27 33 39 41 41 37 36 37 38 38 39 40 41 42 44 45 46 47 49 52 50 50 51 53 51 51 49 47 46 46 44 41 41 40 41 44 43 43 42 40 42 40 40
30 38 42 44 40 37 38 38 38 39 39 40 41 43 47 51 52 53 52 51 52 52 48 50 53 51 51 48 45 44 44 39 38 38 42 46 46 42 37 48 43 36 40
34 41 43 42 39 37 37 35 37 37 38 39 42 47 51 52 58 56 51 48 49 51 49 47 50 50 49 48 46 42 43 43 41 42 44 40 42 45 47 44 47 37 35
37 41 40 37 36 36 35 35 35 35 38 42 42 46 50 57 50 37 32 39 41 45 43 43 46 48 47 49 45 44 42 42 43 43 44 41 39 37 40 44 36 31 34
37 37 36 36 35 34 35 34 33 35 34 38 44 42 52 50 37 32 29 33 30 31 36 38 41 43 44 46 44 42 43 43 43 43 42 41 41 41 40 37 37 34 36
36 35 34 32 32 31 31 31 30 31 34 41 44 42 47 43 30 28 25 24 21 23 28 33 35 37 40 42 40 41 41 42 42 40 38 34 40 37 39 40 36 35 36
32 31 29 28 27 27 26 29 29 28 36 38 36 42 37 30 25 27 22 20 18 15 18 25 31 33 36 39 40 40 40 40 38 37 34 35 36 38 34 34 37 38 39
28 29 26 25 23 27 28 28 27 32 32 35 31 41 35 38 25 21 19 16 15 14 16 19 24 30 32 36 35 36 37 34 34 34 35 34 32 31 38 33 32 35 37
27 24 22 23 23 25 26 32 27 25 30 34 31 35 31 43 15 16 16 12 11 11 10 11 15 20 26 29 30 32 31 31 32 32 34 35 37 35 33 37 33 36 36
24 22 20 19 19 20 23 19 23 28 30 35 30 33 33 38 25 16 17 20 17 14 11 13 16 18 20 22 24 26 27 28 27 29 32 32 31 27 25 26 30 32 34
22 23 19 17 16 18 22 23 20 25 30 33 30 27 37 36 38 33 7 11 4 10 11 15 14 15 17 17 18 21 22 21 24 26 27 23 24 22 23 24 23 27 35
20 20 19 17 17 18 23 18 16 19 23 30 33 21 27 39 36 35 37 28 19 23 21 16 12 10 10 19 18 19 20 20 19 18 21 20 26 25 24 27 25 24 26
20 20 19 17 13 15 15 14 13 16 18 24 32 26 22 24 33 37 34 31 23 23 25 19 6 7 7 3 4 9 12 15 19 20 22 25 27 30 30 32 33 32 36
20 20 16 14 8 9 8 11 13 12 13 18 25 30 26 30 18 22 24 29 27 24 23 21 18 12 8 6 5 6 5 11 6 14 17 19 22 25 27 26 28 30 28
20 19 16 10 8 8 7 7 8 11 15 15 18 23 22 22 29 27 18 23 23 23 24 22 21 20 17 13 11 6 4 7 2 11 9 9 4 1 3 4 10 4 1
17 16 14 8 8 9 11 6 8 9 13 15 16 16 21 20 18 20 23 17 14 15 16 17 18 18 18 18 18 16 13 8 9 8 7 7 6 7 6 8 11 10 12
16 12 7 7 7 8 7 7 9 10 10 10 10 14 17 17 15 14 17 17 16 14 14 13 12 10 9 9 10 10 10 12 13 12 8 10 12 12 8 7 8 8 8
16 14 11 9 10 7 9 8 10 10 11 10 12 15 17 17 13 12 12 13 12 12 11 10 10 10 9 8 7 7 7 7 7 6 5 4 3 3 5 6 9 11 11
14 12 10 8 11 11 10 12 10 12 14 13 12 14 15 15 15 14 14 12 11 11 10 10 9 9 9 10 10 9 9 7 8 8 7 7 8 6 7 8 9 10 10
20 14 12 10 11 10 12 12 13 14 14 18 16 14 12 11 12 13 13 13 13 13 12 11 11 10 10 10 11 11 12 13 14 13 14 13 12 14 15 17 17 21 21
28 21 20 19 9 12 15 14 13 13 16 16 16 15 14 14 13 12 13 13 13 13 13 13 13 13 13 13 13 13 14 14 15 15 17 19 20 20 23 24 25 26 28
27 17 12 10 13 15 15 14 12 13 15 14 14 13 12 13 13 13 13 13 13 13 13 14 14 14 14 14 14 14 15 16 18 18 19 20 20 21 24 26 27 29 28
10 10 11 10 13 12 13 14 15 15 14 13 13 12 13 13 13 13 13 13 13 13 14 14 14 15 16 17 18 19 19 19 20 20 22 23 24 25 27 27 28 28 30
8 6 8 12 12 13 13 13 13 13 13 13 13 14 14 13 13 13 14 14 15 15 15 15 15 16 17 18 19 20 20 20 21 22 23 24 25 27 29 30 31 33 34
Wind_Direction
300 310 312 313 317 316 312 309 306 303 299 300 298 293 290 287 283 279 273 270 266 262 258 257 254 253 253 253 253 256 244 252 254 257 257 257 263 266 266 263 262 264 266
298 310 313 315 317 315 311 308 305 307 306 304 304 302 299 293 287 281 275 271 268 262 257 254 252 251 250 250 251 253 256 254 260 255 257 261 259 268 261 261 260 262 265
298 309 310 314 314 312 309 308 308 308 307 306 305 305 304 301 298 292 281 273 267 265 258 253 251 248 247 247 248 249 251 252 257 257 258 252 261 258 261 259 255 256 262
301 307 310 313 314 311 311 312 311 311 311 307 306 308 306 305 304 297 292 281 267 261 258 253 247 246 244 243 244 246 246 247 248 250 253 250 252 247 255 261 257 253 259
306 310 313 313 311 311 312 312 313 313 313 309 307 307 308 306 307 299 289 281 266 258 256 255 247 241 241 240 239 242 243 244 246 249 252 257 258 251 249 255 262 257 256
311 311 312 310 310 312 312 314 315 315 313 309 310 309 311 312 308 297 295 288 268 261 246 248 244 237 237 236 235 239 243 244 246 249 255 257 259 262 252 256 245 248 246
307 309 308 308 312 314 313 314 316 318 318 318 319 318 322 314 306 298 286 290 266 254 241 235 234 233 234 234 236 236 241 244 245 250 257 261 265 266 248 254 245 242 245
304 304 306 312 315 315 315 315 316 317 318 321 326 326 327 320 307 299 295 291 281 255 237 229 230 232 232 232 235 238 239 244 249 253 260 266 268 265 259 244 243 247 242
302 301 309 310 313 315 322 326 320 315 323 325 333 337 336 331 297 298 289 287 283 266 242 234 232 229 228 229 232 236 241 244 252 253 258 260 267 250 251 239 242 242 242
302 305 310 317 318 325 330 328 326 325 336 337 336 345 324 347 302 298 291 290 274 261 253 244 236 232 229 226 232 235 240 245 246 253 249 261 269 253 249 235 244 237 242
308 311 317 321 318 330 332 332 325 334 348 342 347 353 334 354 314 301 302 247 246 256 239 229 224 218 218 221 228 236 243 243 246 245 251 261 267 258 250 252 245 238 230
314 318 318 314 322 339 342 354 348 343 353 359 350 359 360 358 30 287 295 312 252 242 242 233 222 219 221 225 232 234 240 244 244 244 254 266 255 238 237 240 231 239 240
313 313 307 297 313 331 340 336 346 343 357 357 355 3 359 9 23 50 255 281 255 214 221 219 210 211 218 221 228 232 235 239 245 246 248 249 228 224 224 232 226 230 235
307 306 300 293 294 315 330 339 345 352 354 357 358 2 5 2 21 38 48 74 90 118 140 167 167 186 196 195 206 216 222 230 246 253 239 227 234 240 231 235 239 233 241
299 298 299 296 297 312 329 338 344 355 358 359 356 10 14 13 22 23 34 49 55 60 66 87 151 199 224 232 198 261 265 247 248 242 241 244 246 246 248 248 247 246 248
295 298 297 290 286 297 337 353 359 355 357 357 357 8 19 16 32 36 30 47 53 49 53 59 69 75 83 51 22 346 90 51 128 192 225 227 241 250 255 252 253 250 243
297 294 287 280 276 280 298 347 351 347 334 349 347 4 11 18 6 20 49 49 44 48 48 67 66 60 56 52 56 74 135 33 150 45 67 86 74 17 148 151 48 354 249
297 294 279 266 255 258 303 321 353 332 326 323 327 6 4 359 8 360 1 14 44 56 62 59 57 56 51 41 39 50 57 44 53 71 62 54 46 26 18 352 343 336 338
289 281 249 249 244 252 300 328 326 324 326 338 355 338 340 340 340 336 335 349 8 24 33 40 46 49 78 79 61 43 49 58 45 39 44 29 10 357 345 335 336 336 315
278 257 242 240 241 253 279 298 292 293 316 323 316 316 322 327 327 321 330 344 352 354 358 1 4 5 12 19 17 11 9 9 15 21 38 72 60 34 23 13 350 350 348
252 245 234 252 246 264 267 273 271 281 300 304 309 319 321 325 331 337 344 349 351 351 352 351 350 345 342 341 337 337 320 325 314 322 320 313 304 300 287 272 275 280 287
212 218 233 227 254 262 261 261 267 270 288 306 313 320 324 325 330 333 338 342 345 346 346 344 341 338 334 331 323 318 315 312 309 301 295 286 282 275 283 286 291 288 284
229 218 229 242 239 253 258 262 262 272 286 296 306 315 323 327 332 335 337 338 338 339 339 339 338 337 335 331 326 322 319 313 309 305 300 298 295 289 284 284 280 281 278
220 212 193 230 252 256 263 261 271 285 293 299 306 312 319 324 329 334 335 336 337 337 336 334 332 329 327 323 321 317 313 310 309 306 301 297 292 291 289 290 290 288 285
176 218 221 233 248 260 272 282 288 294 299 301 307 314 319 322 323 326 327 328 330 330 329 328 326 325 323 323 320 318 314 313 310 305 301 299 298 296 293 291 287 284 283
210 216 229 248 264 274 279 284 288 292 296 302 309 315 318 318 320 323 327 329 329 329 327 324 325 325 321 318 317 315 313 312 309 306 303 301 300 297 295 294 293 291 290